FALCON 9 R/B (48839 NORAD) Tracking and Keplerian Element Data

This shows tracking and keplerian element data for the satellite.

Feedback or suggestion? Click here.




ElementValue
Catalog48839
NameFALCON 9 R/B
Epoch Orbit55
Epoch Day170.32981396
Epoch Year2021
RAAN143.4544
Inclination27.0158
Eccentricity0.5912419
Argument of Perigee192.21
Mean Anonmoly142.5687
Mean Motion4.22085638
Decay Rate6.26E-05
L11 48839U 21049B 21170.32981396 .00006260 00000-0 43480-3 0 9996
L22 48839 27.0158 143.4544 5912419 192.2100 142.5687 4.22085638 559

Live tracking and technical data element details for FALCON 9 R/B (NORAD 48839). FALCON 9 R/B can be tracked NOW for your location showing map with azimuth and elevation plus other details from your city location.

Track the satellite on the map from your city or location and see movement details for azimuth, elevation, latitude, longitude, range, height, and movement on the map or in text.







IsCatalogInMostPopularTable: catalog: 48839, numindb: 3
Update: records affected: 1



GetName: 48839 FALCON 9 R/B

Hit Count: updated at: Mon, 21 Jun 2021 04:10:40 GMT